QPF
0.01 0.01 0.01 0.01 0.01 0.01 0.01 0.01 0.01 0.01 0.00 0.00 0.00 0.00 0.00 0.00 0.00 0.00 0.00 0.00 0.00 0.00 0.00 0.00 0.00 0.00 0.00 0.00 0.00 0.00 0.00 0.01 0.02 0.01 0.00 0.01 0.02 0.01 0.01 0.01 0.03 0.04 0.04
0.01 0.01 0.02 0.02 0.02 0.02 0.01 0.02 0.01 0.00 0.00 0.00 0.00 0.00 0.00 0.00 0.00 0.00 0.00 0.00 0.00 0.00 0.00 0.00 0.00 0.00 0.00 0.00 0.00 0.00 0.00 0.01 0.01 0.01 0.00 0.00 0.01 0.01 0.01 0.01 0.02 0.03 0.03
0.02 0.02 0.02 0.03 0.02 0.02 0.02 0.01 0.00 0.00 0.00 0.00 0.00 0.00 0.00 0.00 0.00 0.00 0.00 0.00 0.00 0.00 0.00 0.00 0.00 0.00 0.00 0.00 0.00 0.00 0.00 0.00 0.01 0.02 0.01 0.01 0.01 0.01 0.01 0.01 0.01 0.02 0.03
0.02 0.02 0.03 0.04 0.03 0.03 0.02 0.01 0.00 0.00 0.00 0.00 0.00 0.00 0.00 0.00 0.00 0.00 0.00 0.00 0.00 0.00 0.00 0.00 0.00 0.00 0.00 0.00 0.00 0.00 0.00 0.00 0.01 0.02 0.02 0.01 0.01 0.01 0.01 0.01 0.02 0.03 0.03
0.03 0.04 0.04 0.04 0.04 0.03 0.01 0.01 0.00 0.00 0.00 0.00 0.00 0.00 0.00 0.00 0.00 0.00 0.00 0.00 0.00 0.00 0.00 0.00 0.00 0.00 0.00 0.00 0.00 0.00 0.00 0.00 0.00 0.01 0.01 0.01 0.01 0.01 0.01 0.01 0.02 0.03 0.03
0.03 0.04 0.04 0.03 0.03 0.02 0.01 0.01 0.00 0.00 0.00 0.00 0.00 0.00 0.00 0.00 0.00 0.00 0.00 0.00 0.00 0.00 0.00 0.00 0.00 0.00 0.00 0.00 0.00 0.00 0.00 0.00 0.01 0.01 0.01 0.01 0.01 0.01 0.01 0.02 0.02 0.02 0.02
0.02 0.02 0.02 0.02 0.01 0.01 0.01 0.00 0.00 0.00 0.00 0.00 0.00 0.00 0.00 0.00 0.00 0.00 0.00 0.00 0.00 0.00 0.00 0.00 0.00 0.00 0.00 0.00 0.00 0.00 0.00 0.00 0.01 0.01 0.02 0.02 0.02 0.01 0.01 0.01 0.02 0.03 0.02
0.01 0.02 0.01 0.01 0.01 0.01 0.01 0.00 0.00 0.00 0.00 0.00 0.00 0.00 0.00 0.00 0.00 0.00 0.00 0.00 0.00 0.00 0.00 0.00 0.00 0.00 0.00 0.00 0.00 0.00 0.00 0.00 0.00 0.00 0.01 0.01 0.02 0.02 0.02 0.02 0.02 0.02 0.02
0.00 0.01 0.00 0.01 0.01 0.01 0.00 0.00 0.00 0.00 0.00 0.00 0.00 0.00 0.00 0.00 0.00 0.00 0.00 0.00 0.00 0.00 0.00 0.00 0.00 0.00 0.00 0.00 0.00 0.00 0.00 0.01 0.00 0.00 0.01 0.01 0.01 0.01 0.03 0.04 0.03 0.03 0.02
0.00 0.00 0.00 0.00 0.00 0.00 0.00 0.00 0.00 0.00 0.00 0.00 0.00 0.00 0.00 0.00 0.00 0.00 0.00 0.00 0.00 0.00 0.00 0.00 0.00 0.00 0.00 0.01 0.00 0.00 0.00 0.00 0.00 0.00 0.01 0.01 0.02 0.01 0.02 0.03 0.03 0.03 0.03
0.00 0.00 0.00 0.00 0.00 0.00 0.00 0.00 0.00 0.00 0.00 0.00 0.00 0.00 0.00 0.00 0.00 0.00 0.00 0.00 0.00 0.00 0.00 0.00 0.00 0.00 0.00 0.01 0.01 0.01 0.01 0.01 0.01 0.01 0.01 0.01 0.02 0.02 0.02 0.02 0.02 0.03 0.04
0.00 0.00 0.00 0.00 0.00 0.00 0.00 0.00 0.00 0.00 0.00 0.00 0.00 0.00 0.00 0.00 0.00 0.00 0.00 0.00 0.00 0.00 0.00 0.00 0.00 0.00 0.00 0.01 0.01 0.01 0.01 0.01 0.01 0.01 0.01 0.01 0.02 0.02 0.02 0.02 0.02 0.03 0.04
0.00 0.00 0.00 0.00 0.00 0.00 0.00 0.01 0.00 0.00 0.00 0.00 0.00 0.00 0.00 0.00 0.00 0.00 0.00 0.00 0.00 0.00 0.00 0.00 0.00 0.00 0.00 0.01 0.01 0.02 0.02 0.02 0.02 0.02 0.01 0.01 0.02 0.02 0.03 0.03 0.02 0.03 0.04
0.00 0.00 0.00 0.00 0.00 0.00 0.00 0.00 0.00 0.00 0.00 0.00 0.00 0.00 0.00 0.00 0.00 0.00 0.00 0.00 0.00 0.00 0.00 0.00 0.00 0.00 0.00 0.01 0.01 0.01 0.01 0.01 0.02 0.02 0.02 0.01 0.02 0.03 0.04 0.04 0.04 0.04 0.05
0.00 0.00 0.00 0.00 0.00 0.00 0.00 0.00 0.00 0.00 0.00 0.00 0.00 0.00 0.00 0.00 0.00 0.00 0.00 0.00 0.00 0.00 0.00 0.00 0.00 0.00 0.00 0.00 0.00 0.00 0.01 0.02 0.03 0.03 0.02 0.02 0.02 0.03 0.04 0.05 0.06 0.06 0.06
0.00 0.00 0.00 0.00 0.00 0.00 0.00 0.00 0.00 0.00 0.00 0.00 0.00 0.00 0.00 0.00 0.00 0.00 0.00 0.00 0.00 0.00 0.00 0.00 0.00 0.00 0.00 0.00 0.00 0.01 0.02 0.03 0.04 0.03 0.03 0.03 0.04 0.04 0.05 0.06 0.07 0.08 0.09
0.00 0.00 0.00 0.00 0.00 0.00 0.00 0.00 0.00 0.00 0.00 0.00 0.00 0.00 0.00 0.00 0.00 0.00 0.00 0.00 0.00 0.00 0.00 0.00 0.00 0.00 0.00 0.00 0.00 0.01 0.01 0.03 0.03 0.04 0.03 0.03 0.04 0.05 0.05 0.05 0.06 0.07 0.08
0.00 0.00 0.00 0.00 0.00 0.00 0.00 0.00 0.01 0.01 0.00 0.00 0.00 0.00 0.00 0.00 0.00 0.00 0.00 0.00 0.00 0.00 0.00 0.00 0.00 0.00 0.00 0.00 0.00 0.00 0.01 0.02 0.03 0.04 0.03 0.03 0.04 0.05 0.04 0.04 0.05 0.06 0.06
0.00 0.00 0.00 0.00 0.00 0.00 0.00 0.00 0.00 0.01 0.01 0.01 0.01 0.00 0.00 0.00 0.00 0.00 0.00 0.00 0.00 0.00 0.00 0.00 0.00 0.00 0.01 0.01 0.01 0.01 0.01 0.02 0.04 0.05 0.04 0.04 0.04 0.05 0.05 0.05 0.05 0.06 0.06
0.00 0.00 0.00 0.00 0.00 0.00 0.00 0.00 0.00 0.00 0.01 0.01 0.01 0.00 0.00 0.00 0.00 0.00 0.00 0.00 0.00 0.00 0.00 0.00 0.01 0.01 0.01 0.01 0.01 0.01 0.02 0.02 0.04 0.05 0.05 0.05 0.05 0.04 0.05 0.06 0.05 0.05 0.06
0.00 0.00 0.00 0.00 0.00 0.00 0.00 0.00 0.00 0.00 0.00 0.00 0.01 0.01 0.01 0.00 0.00 0.00 0.00 0.00 0.00 0.00 0.00 0.01 0.01 0.01 0.01 0.01 0.02 0.02 0.02 0.03 0.04 0.05 0.06 0.06 0.06 0.05 0.05 0.05 0.06 0.05 0.06
0.00 0.00 0.00 0.00 0.00 0.00 0.00 0.00 0.00 0.00 0.00 0.00 0.00 0.00 0.01 0.00 0.00 0.00 0.00 0.00 0.00 0.01 0.01 0.01 0.01 0.01 0.01 0.02 0.02 0.03 0.03 0.03 0.05 0.05 0.05 0.06 0.06 0.05 0.05 0.05 0.05 0.05 0.06
0.00 0.00 0.00 0.00 0.00 0.00 0.00 0.00 0.00 0.00 0.00 0.00 0.00 0.00 0.00 0.00 0.00 0.01 0.01 0.01 0.01 0.01 0.01 0.01 0.01 0.01 0.01 0.02 0.02 0.03 0.03 0.03 0.04 0.05 0.05 0.06 0.05 0.05 0.05 0.05 0.05 0.05 0.05
0.00 0.00 0.00 0.00 0.00 0.00 0.00 0.00 0.00 0.00 0.00 0.00 0.00 0.00 0.00 0.00 0.00 0.00 0.01 0.01 0.01 0.00 0.00 0.01 0.01 0.01 0.01 0.02 0.02 0.02 0.02 0.03 0.03 0.04 0.04 0.05 0.05 0.05 0.05 0.06 0.05 0.05 0.05
0.00 0.00 0.00 0.00 0.00 0.00 0.00 0.00 0.00 0.00 0.00 0.00 0.00 0.00 0.00 0.00 0.00 0.00 0.00 0.00 0.01 0.01 0.01 0.01 0.01 0.01 0.01 0.02 0.02 0.02 0.01 0.01 0.02 0.03 0.03 0.04 0.04 0.05 0.05 0.05 0.05 0.05 0.06
0.00 0.00 0.00 0.00 0.00 0.00 0.00 0.00 0.00 0.00 0.00 0.00 0.00 0.00 0.00 0.00 0.00 0.00 0.00 0.00 0.00 0.01 0.01 0.01 0.01 0.01 0.01 0.01 0.01 0.01 0.01 0.01 0.01 0.02 0.03 0.04 0.05 0.06 0.06 0.06 0.06 0.06 0.06
MSLP
1019.27 1019.60 1019.93 1020.22 1020.46 1020.66 1020.81 1020.94 1021.06 1021.18 1021.31 1021.44 1021.56 1021.65 1021.71 1021.73 1021.70 1021.64 1021.56 1021.48 1021.42 1021.39 1021.40 1021.44 1021.48 1021.51 1021.49 1021.41 1021.26 1021.02 1020.72 1020.38 1019.99 1019.60 1019.21 1018.83 1018.46 1018.09 1017.70 1017.30 1016.87 1016.43 1015.97
1019.34 1019.69 1020.01 1020.30 1020.54 1020.73 1020.89 1021.02 1021.14 1021.26 1021.39 1021.53 1021.67 1021.78 1021.87 1021.91 1021.90 1021.86 1021.80 1021.73 1021.67 1021.64 1021.64 1021.66 1021.69 1021.71 1021.70 1021.63 1021.49 1021.28 1021.01 1020.69 1020.33 1019.95 1019.55 1019.16 1018.75 1018.34 1017.91 1017.46 1016.98 1016.48 1015.98
1019.21 1019.59 1019.94 1020.25 1020.50 1020.71 1020.88 1021.03 1021.17 1021.31 1021.46 1021.62 1021.77 1021.90 1022.00 1022.06 1022.07 1022.05 1021.99 1021.93 1021.87 1021.83 1021.81 1021.82 1021.83 1021.83 1021.81 1021.74 1021.61 1021.42 1021.17 1020.87 1020.53 1020.16 1019.77 1019.36 1018.94 1018.50 1018.04 1017.56 1017.05 1016.52 1015.98
1018.88 1019.31 1019.70 1020.04 1020.34 1020.58 1020.79 1020.97 1021.14 1021.32 1021.50 1021.67 1021.85 1022.00 1022.11 1022.19 1022.21 1022.20 1022.15 1022.08 1022.01 1021.96 1021.92 1021.90 1021.89 1021.87 1021.83 1021.76 1021.64 1021.46 1021.22 1020.94 1020.61 1020.24 1019.85 1019.44 1019.01 1018.55 1018.07 1017.57 1017.05 1016.51 1015.95
1018.38 1018.86 1019.31 1019.70 1020.04 1020.33 1020.59 1020.82 1021.04 1021.25 1021.46 1021.67 1021.87 1022.04 1022.17 1022.25 1022.29 1022.28 1022.23 1022.16 1022.08 1022.01 1021.95 1021.90 1021.87 1021.83 1021.78 1021.69 1021.57 1021.39 1021.16 1020.88 1020.56 1020.20 1019.80 1019.38 1018.94 1018.47 1017.99 1017.48 1016.95 1016.41 1015.85
1017.76 1018.30 1018.79 1019.24 1019.63 1019.97 1020.28 1020.56 1020.83 1021.08 1021.33 1021.57 1021.78 1021.97 1022.12 1022.21 1022.26 1022.26 1022.21 1022.14 1022.05 1021.97 1021.89 1021.82 1021.77 1021.71 1021.64 1021.55 1021.41 1021.23 1021.00 1020.72 1020.39 1020.02 1019.62 1019.18 1018.73 1018.26 1017.77 1017.26 1016.74 1016.20 1015.65
1017.07 1017.65 1018.19 1018.68 1019.11 1019.50 1019.85 1020.18 1020.48 1020.77 1021.05 1021.31 1021.55 1021.75 1021.91 1022.02 1022.08 1022.09 1022.06 1021.99 1021.90 1021.81 1021.73 1021.65 1021.57 1021.50 1021.42 1021.31 1021.17 1020.98 1020.74 1020.45 1020.11 1019.73 1019.31 1018.86 1018.39 1017.91 1017.42 1016.92 1016.41 1015.88 1015.34
1016.34 1016.95 1017.51 1018.03 1018.50 1018.92 1019.30 1019.65 1019.98 1020.29 1020.59 1020.87 1021.12 1021.34 1021.52 1021.65 1021.73 1021.76 1021.74 1021.69 1021.62 1021.54 1021.45 1021.37 1021.29 1021.21 1021.12 1021.00 1020.84 1020.64 1020.39 1020.08 1019.72 1019.32 1018.88 1018.41 1017.93 1017.44 1016.95 1016.46 1015.96 1015.46 1014.94
1015.58 1016.20 1016.78 1017.31 1017.79 1018.23 1018.63 1019.00 1019.34 1019.66 1019.96 1020.25 1020.51 1020.75 1020.95 1021.10 1021.21 1021.27 1021.29 1021.27 1021.22 1021.16 1021.09 1021.01 1020.93 1020.84 1020.74 1020.61 1020.44 1020.22 1019.95 1019.62 1019.24 1018.82 1018.36 1017.88 1017.39 1016.89 1016.40 1015.92 1015.44 1014.95 1014.45
1014.77 1015.39 1015.97 1016.51 1017.00 1017.44 1017.85 1018.21 1018.56 1018.88 1019.19 1019.48 1019.75 1020.01 1020.23 1020.42 1020.56 1020.66 1020.72 1020.74 1020.73 1020.70 1020.65 1020.58 1020.51 1020.41 1020.30 1020.15 1019.96 1019.72 1019.43 1019.09 1018.69 1018.25 1017.77 1017.28 1016.78 1016.28 1015.80 1015.32 1014.86 1014.40 1013.92
1013.90 1014.50 1015.08 1015.61 1016.11 1016.56 1016.96 1017.33 1017.67 1018.00 1018.31 1018.61 1018.90 1019.17 1019.42 1019.65 1019.84 1019.99 1020.09 1020.16 1020.19 1020.19 1020.16 1020.11 1020.03 1019.93 1019.80 1019.63 1019.42 1019.16 1018.85 1018.49 1018.08 1017.62 1017.14 1016.64 1016.14 1015.65 1015.17 1014.71 1014.26 1013.82 1013.36
1012.95 1013.52 1014.09 1014.62 1015.12 1015.57 1015.99 1016.36 1016.71 1017.04 1017.36 1017.68 1017.99 1018.29 1018.58 1018.84 1019.08 1019.28 1019.44 1019.55 1019.62 1019.65 1019.64 1019.59 1019.50 1019.39 1019.24 1019.05 1018.82 1018.54 1018.21 1017.84 1017.42 1016.97 1016.48 1015.99 1015.50 1015.01 1014.54 1014.09 1013.66 1013.22 1012.78
1011.90 1012.45 1013.00 1013.53 1014.03 1014.50 1014.93 1015.32 1015.69 1016.04 1016.39 1016.73 1017.06 1017.40 1017.73 1018.04 1018.32 1018.57 1018.77 1018.92 1019.02 1019.07 1019.07 1019.02 1018.92 1018.79 1018.61 1018.40 1018.15 1017.85 1017.52 1017.14 1016.73 1016.28 1015.82 1015.34 1014.86 1014.38 1013.92 1013.48 1013.04 1012.61 1012.17
1010.78 1011.29 1011.82 1012.34 1012.85 1013.33 1013.78 1014.21 1014.61 1014.99 1015.37 1015.75 1016.13 1016.51 1016.88 1017.23 1017.56 1017.85 1018.08 1018.26 1018.38 1018.44 1018.43 1018.37 1018.26 1018.10 1017.90 1017.67 1017.40 1017.10 1016.77 1016.40 1016.01 1015.59 1015.14 1014.69 1014.23 1013.77 1013.31 1012.86 1012.41 1011.96 1011.50
1009.61 1010.06 1010.55 1011.06 1011.56 1012.06 1012.54 1013.00 1013.44 1013.87 1014.30 1014.73 1015.16 1015.59 1016.00 1016.40 1016.76 1017.08 1017.34 1017.54 1017.66 1017.71 1017.70 1017.62 1017.49 1017.31 1017.10 1016.85 1016.58 1016.29 1015.97 1015.63 1015.27 1014.88 1014.48 1014.05 1013.61 1013.16 1012.69 1012.22 1011.74 1011.24 1010.73
1008.42 1008.79 1009.22 1009.69 1010.18 1010.68 1011.18 1011.68 1012.17 1012.65 1013.14 1013.63 1014.11 1014.59 1015.06 1015.49 1015.89 1016.23 1016.51 1016.71 1016.83 1016.87 1016.84 1016.75 1016.60 1016.41 1016.19 1015.95 1015.69 1015.42 1015.14 1014.84 1014.52 1014.18 1013.82 1013.42 1012.99 1012.54 1012.05 1011.53 1010.99 1010.42 1009.82
1007.24 1007.51 1007.85 1008.26 1008.71 1009.20 1009.70 1010.23 1010.76 1011.30 1011.85 1012.40 1012.95 1013.49 1014.00 1014.48 1014.90 1015.27 1015.55 1015.75 1015.87 1015.90 1015.86 1015.76 1015.61 1015.42 1015.21 1014.99 1014.76 1014.53 1014.29 1014.05 1013.78 1013.49 1013.17 1012.79 1012.37 1011.90 1011.37 1010.79 1010.15 1009.48 1008.76
1006.09 1006.22 1006.46 1006.78 1007.17 1007.62 1008.12 1008.65 1009.22 1009.81 1010.42 1011.03 1011.65 1012.24 1012.81 1013.33 1013.79 1014.18 1014.47 1014.68 1014.80 1014.83 1014.79 1014.68 1014.54 1014.37 1014.18 1014.00 1013.81 1013.63 1013.46 1013.27 1013.06 1012.82 1012.53 1012.17 1011.74 1011.23 1010.64 1009.97 1009.23 1008.42 1007.55
1004.98 1004.97 1005.07 1005.28 1005.59 1005.98 1006.45 1006.98 1007.56 1008.19 1008.86 1009.53 1010.21 1010.87 1011.50 1012.07 1012.56 1012.98 1013.29 1013.51 1013.64 1013.68 1013.65 1013.56 1013.44 1013.30 1013.15 1013.01 1012.88 1012.76 1012.65 1012.52 1012.36 1012.16 1011.89 1011.53 1011.08 1010.52 1009.86 1009.08 1008.21 1007.26 1006.24
1003.91 1003.76 1003.73 1003.81 1004.02 1004.33 1004.75 1005.26 1005.85 1006.51 1007.21 1007.95 1008.69 1009.41 1010.10 1010.72 1011.26 1011.71 1012.05 1012.30 1012.44 1012.51 1012.50 1012.44 1012.35 1012.25 1012.16 1012.07 1012.00 1011.94 1011.87 1011.79 1011.68 1011.50 1011.24 1010.87 1010.38 1009.76 1009.01 1008.13 1007.13 1006.04 1004.88
1002.92 1002.63 1002.46 1002.42 1002.52 1002.75 1003.10 1003.58 1004.16 1004.83 1005.57 1006.34 1007.14 1007.92 1008.66 1009.34 1009.93 1010.42 1010.80 1011.08 1011.26 1011.35 1011.38 1011.36 1011.32 1011.27 1011.22 1011.18 1011.17 1011.15 1011.13 1011.09 1010.99 1010.83 1010.56 1010.16 1009.63 1008.95 1008.11 1007.13 1006.03 1004.81 1003.52
1002.01 1001.60 1001.32 1001.16 1001.16 1001.30 1001.58 1002.01 1002.57 1003.24 1003.99 1004.80 1005.63 1006.46 1007.25 1007.98 1008.62 1009.15 1009.58 1009.90 1010.12 1010.25 1010.32 1010.35 1010.35 1010.34 1010.34 1010.35 1010.38 1010.40 1010.41 1010.38 1010.29 1010.12 1009.83 1009.40 1008.82 1008.08 1007.17 1006.12 1004.92 1003.63 1002.26
1001.23 1000.73 1000.35 1000.10 1000.00 1000.05 1000.27 1000.65 1001.17 1001.82 1002.57 1003.39 1004.25 1005.11 1005.93 1006.69 1007.37 1007.95 1008.42 1008.78 1009.04 1009.21 1009.33 1009.40 1009.44 1009.48 1009.52 1009.56 1009.61 1009.65 1009.67 1009.64 1009.54 1009.34 1009.02 1008.55 1007.93 1007.14 1006.19 1005.09 1003.86 1002.52 1001.12
1000.57 1000.02 999.57 999.25 999.07 999.06 999.21 999.53 1000.01 1000.63 1001.36 1002.17 1003.03 1003.89 1004.73 1005.52 1006.22 1006.82 1007.32 1007.72 1008.02 1008.23 1008.39 1008.50 1008.58 1008.65 1008.72 1008.78 1008.84 1008.88 1008.89 1008.84 1008.72 1008.48 1008.13 1007.63 1006.97 1006.15 1005.19 1004.08 1002.84 1001.53 1000.16
1000.05 999.47 998.99 998.62 998.39 998.32 998.42 998.69 999.11 999.69 1000.38 1001.16 1001.99 1002.84 1003.67 1004.46 1005.16 1005.78 1006.30 1006.72 1007.05 1007.30 1007.49 1007.63 1007.75 1007.84 1007.93 1008.00 1008.05 1008.08 1008.06 1007.98 1007.81 1007.54 1007.15 1006.61 1005.93 1005.11 1004.15 1003.06 1001.88 1000.63 999.34
999.62 999.05 998.56 998.17 997.92 997.81 997.87 998.09 998.47 998.99 999.63 1000.36 1001.15 1001.96 1002.76 1003.52 1004.22 1004.83 1005.36 1005.79 1006.14 1006.41 1006.63 1006.80 1006.94 1007.05 1007.13 1007.20 1007.23 1007.23 1007.17 1007.04 1006.83 1006.51 1006.07 1005.51 1004.81 1004.00 1003.07 1002.04 1000.94 999.79 998.63
Thickness
5700 5699 5697 5696 5695 5695 5695 5695 5694 5694 5694 5694 5693 5692 5690 5688 5687 5684 5683 5682 5681 5680 5679 5678 5676 5675 5675 5676 5676 5677 5677 5677 5676 5681 5684 5685 5685 5686 5687 5688 5689 5691 5694
5699 5697 5696 5695 5695 5695 5694 5693 5693 5692 5691 5691 5690 5688 5686 5684 5683 5681 5679 5678 5676 5675 5674 5673 5672 5671 5669 5670 5669 5670 5671 5671 5671 5671 5675 5677 5678 5679 5680 5681 5684 5686 5687
5698 5697 5696 5696 5695 5694 5693 5691 5690 5689 5688 5687 5686 5684 5682 5680 5678 5677 5676 5674 5673 5671 5669 5668 5667 5666 5664 5664 5663 5664 5664 5664 5664 5665 5667 5668 5670 5672 5672 5674 5677 5678 5681
5698 5696 5696 5696 5694 5692 5690 5688 5687 5686 5685 5683 5681 5679 5677 5675 5674 5673 5671 5670 5669 5667 5665 5663 5661 5659 5657 5657 5656 5656 5656 5656 5656 5657 5658 5660 5661 5663 5663 5665 5667 5670 5672
5697 5696 5695 5694 5691 5689 5687 5685 5683 5681 5680 5678 5676 5674 5672 5670 5668 5666 5665 5664 5663 5662 5660 5658 5655 5650 5647 5646 5646 5646 5646 5646 5647 5647 5648 5650 5651 5651 5652 5654 5656 5660 5664
5697 5695 5692 5690 5688 5685 5683 5681 5679 5676 5675 5673 5671 5669 5667 5664 5660 5657 5656 5658 5658 5656 5654 5652 5649 5645 5641 5638 5636 5634 5633 5634 5635 5635 5637 5637 5638 5639 5640 5641 5644 5647 5651
5696 5693 5689 5687 5684 5682 5679 5677 5674 5672 5670 5668 5666 5664 5662 5658 5653 5651 5649 5650 5651 5649 5647 5644 5642 5639 5634 5634 5632 5628 5627 5624 5622 5622 5624 5625 5626 5628 5627 5629 5631 5634 5638
5694 5690 5687 5684 5681 5678 5675 5672 5670 5669 5666 5662 5660 5658 5655 5652 5647 5645 5643 5644 5644 5641 5638 5636 5633 5631 5627 5624 5624 5623 5622 5620 5616 5614 5615 5615 5615 5615 5615 5616 5618 5622 5627
5691 5688 5685 5681 5677 5674 5671 5668 5666 5663 5661 5658 5655 5652 5649 5647 5641 5638 5635 5638 5637 5634 5631 5627 5624 5622 5616 5613 5613 5614 5613 5612 5607 5604 5602 5602 5601 5601 5600 5602 5606 5609 5615
5688 5685 5682 5678 5674 5670 5667 5664 5661 5658 5655 5652 5649 5647 5644 5641 5635 5631 5627 5630 5629 5627 5624 5621 5615 5611 5606 5602 5602 5603 5602 5602 5600 5598 5596 5595 5595 5595 5593 5593 5595 5597 5602
5685 5681 5678 5674 5670 5666 5662 5659 5656 5652 5649 5647 5644 5641 5638 5634 5629 5624 5620 5619 5618 5617 5616 5613 5610 5602 5597 5593 5590 5591 5589 5587 5588 5588 5588 5588 5587 5587 5587 5586 5586 5586 5588
5680 5675 5672 5669 5665 5661 5656 5653 5650 5647 5643 5640 5638 5635 5632 5628 5622 5618 5613 5609 5606 5606 5605 5603 5600 5592 5588 5584 5582 5580 5577 5574 5576 5577 5577 5576 5575 5575 5575 5575 5575 5575 5576
5674 5670 5667 5664 5659 5655 5651 5647 5644 5640 5638 5635 5632 5629 5626 5623 5617 5611 5606 5602 5598 5596 5596 5591 5587 5582 5579 5577 5574 5570 5567 5566 5566 5565 5564 5564 5563 5563 5563 5562 5563 5564 5565
5670 5666 5662 5658 5654 5651 5646 5642 5638 5635 5632 5629 5625 5622 5619 5616 5611 5606 5602 5597 5591 5588 5586 5583 5577 5574 5570 5567 5565 5562 5559 5556 5553 5551 5551 5551 5551 5551 5551 5551 5552 5553 5555
5666 5661 5657 5653 5649 5644 5640 5636 5632 5629 5625 5620 5618 5614 5611 5607 5603 5595 5589 5588 5584 5580 5575 5573 5571 5568 5565 5562 5558 5553 5548 5544 5542 5540 5538 5538 5539 5539 5540 5540 5540 5542 5544
5661 5656 5651 5647 5641 5637 5633 5629 5623 5619 5614 5609 5605 5601 5600 5595 5590 5584 5579 5574 5570 5565 5562 5564 5562 5559 5555 5551 5547 5542 5538 5534 5530 5528 5526 5525 5525 5527 5528 5529 5529 5530 5533
5654 5650 5645 5640 5636 5631 5627 5623 5619 5613 5606 5602 5597 5593 5588 5585 5579 5574 5570 5565 5560 5555 5555 5555 5553 5549 5544 5540 5535 5531 5527 5523 5518 5515 5514 5513 5513 5514 5515 5517 5518 5519 5522
5647 5642 5637 5632 5629 5625 5621 5617 5613 5608 5604 5600 5593 5586 5581 5576 5571 5565 5560 5555 5555 5551 5549 5546 5542 5538 5533 5529 5524 5519 5515 5511 5507 5504 5502 5501 5501 5502 5503 5504 5506 5507 5509
5638 5634 5629 5625 5621 5617 5613 5609 5605 5600 5596 5592 5588 5582 5574 5568 5562 5557 5551 5550 5549 5546 5541 5536 5532 5527 5522 5517 5513 5508 5503 5499 5495 5492 5491 5490 5489 5490 5491 5493 5494 5496 5495
5630 5624 5619 5616 5612 5608 5604 5600 5596 5592 5587 5583 5579 5574 5568 5561 5557 5552 5546 5543 5539 5536 5531 5526 5521 5516 5511 5506 5501 5497 5493 5489 5485 5483 5481 5479 5479 5479 5480 5482 5484 5485 5487
5622 5616 5608 5605 5603 5599 5595 5591 5586 5582 5578 5574 5569 5564 5555 5551 5548 5544 5540 5534 5529 5524 5519 5515 5510 5505 5500 5495 5491 5488 5484 5480 5477 5474 5471 5470 5469 5468 5469 5471 5474 5475 5477
5612 5608 5602 5598 5594 5589 5585 5580 5576 5572 5568 5563 5559 5553 5544 5539 5537 5533 5529 5524 5518 5512 5507 5503 5499 5494 5489 5485 5481 5478 5475 5471 5468 5465 5462 5460 5459 5459 5461 5463 5465 5466 5468
5601 5597 5592 5588 5583 5577 5572 5570 5566 5561 5557 5553 5548 5542 5536 5530 5526 5521 5516 5511 5506 5501 5496 5491 5488 5484 5479 5474 5470 5467 5464 5462 5458 5455 5453 5452 5451 5452 5453 5455 5458 5459 5461
5589 5585 5581 5577 5572 5567 5563 5559 5555 5550 5546 5541 5536 5530 5525 5519 5514 5509 5504 5500 5495 5490 5485 5480 5476 5473 5469 5464 5461 5458 5455 5452 5448 5446 5445 5444 5444 5446 5447 5450 5452 5454 5455
5576 5572 5568 5564 5560 5555 5551 5547 5543 5539 5534 5529 5523 5518 5513 5507 5502 5498 5493 5488 5483 5478 5474 5469 5465 5462 5459 5455 5452 5450 5447 5443 5440 5438 5437 5438 5440 5441 5444 5446 5448 5450 5451
5562 5558 5554 5550 5546 5542 5538 5534 5531 5526 5521 5516 5510 5505 5500 5495 5491 5486 5482 5477 5472 5467 5463 5460 5456 5453 5450 5447 5446 5443 5440 5437 5434 5432 5431 5433 5436 5438 5441 5443 5445 5446 5447